METEOR 2-17 DEB, 28991

Orbit data source: Space-Track

METEOR 2-17 DEB, 28991 is space debris in LEO originally from a launch on Sat, 30 Jan 1988 UTC launched from the Plesetsk Missile And Space Complex (PKMTR). Debris objects in space refer to the collection of defunct objects orbiting the Earth. Examples of debris include non-operational satellites, rocket bodies, and fragments generated from explosions, collisions, or faulty payload assembly.

Loading next visibility...
Identifier
28991, 1988-005F
Orbit
LEO
Country
Flag of CISCIS
Related business
Manufacturer
Unknown
Mission
Spacecraft
Bus & Motor
Unknown
Mass
Unknown
Launch date (UTC)
1988-01-30 (38 years ago)
Launch vehicle
Unknown
Launch site
Plesetsk Missile And Space Complex (PKMTR)
Object type
Payload
Rocket body
Debris
Shape & HBR
Unknown shape, 0.1 m
Radar Cross Section
Small (<0.1 m²)

Expand to show TLE details & history
Last TLE update: 3 weeks ago

TLE from 3 weeks ago
0 METEOR 2-17 DEB
1 28991U 88005F   25333.48993149  .00002796  00000-0  16091-2 0  9996
2 28991  82.5225  27.8071 0028376 120.5232 304.0606 14.08706581 37820
Epoch: 2025-11-29T11:45Z
TLE epoch observation values (Epoch: 2025-11-29T11:45:30.080Z)
Latitude
63.40904°
Longitude
157.93353°
Altitude
863.235 km
Speed
7.433 km/s
True Right ascension
02h 51m 42s
True Declination
63° 16' 23"
Sunlit
Object was in full shadow at epoch
Visualization orbit readout
Latitude
Unknown
Longitude
Unknown
Altitude
Unknown
Speed
Unknown
Apparent Right ascension
Unknown
Apparent Declination
Unknown
Sunlit
N/A
Visualization observer readout
Local Sidereal Time
19:25:27
Azimuth
Unknown
Elevation
Unknown
Doppler factor
Unknown
Orbital elements
Apogee altitude
881.462 km
Perigee altitude
840.379 km
Semi-major axis
7,239.057 km
Eccentricity
0.00284
Inclination
82.5225°
RAAN
27.8071°
Arg. of periapsis
120.5232°
True anomaly
303.79068°
Mean anomaly
304.0606°
Eccentric anomaly
303.9257°
Mean motion
3.52387 °/min
Orbital period
102.16 mins
BSTAR
0.0016091
Loading maneuver chart data...
Computing Atmospheric mass density...
Loading historical data...
Loading historical data...
Loading historical data...
Loading historical data...
Loading historical data...
Loading historical data...
Loading historical data...

Documentation

Showing up to 5 results
|